Lid_Strength_Index
12 14 15 13 13 12 12 13 14 12 13 13 13 13 12 11 12 12 12 12 13 13 13 13 13 12 11 10 10 9 10 10 10 10 10 10 9 9 9 9 9 9 9 8
14 16 12 12 12 13 13 14 14 14 14 14 14 14 12 11 11 11 11 12 13 13 13 13 13 12 12 11 10 10 10 10 10 10 10 9 9 9 9 9 9 9 9 9
14 12 11 14 14 15 14 15 14 14 15 15 15 14 13 12 11 11 12 11 13 13 14 13 13 12 12 11 11 11 11 10 10 10 11 10 10 10 10 10 10 10 10 10
13 11 13 14 15 15 16 13 14 15 16 17 15 17 12 13 14 15 14 14 14 13 13 13 13 13 12 12 11 11 11 11 11 11 10 10 10 11 10 10 10 10 10 10
13 13 14 15 14 13 15 14 15 15 16 16 16 18 13 16 16 15 15 15 14 13 13 14 13 13 12 12 12 11 11 11 11 11 10 11 11 10 10 11 11 11 11 11
11 11 11 12 12 12 13 15 15 16 16 20 16 17 15 13 14 14 15 14 14 14 14 14 13 13 13 12 12 12 12 12 11 11 11 11 11 11 12 11 11 11 11 11
13 13 12 12 14 13 13 16 19 21 21 20 17 17 14 13 15 15 15 14 14 14 14 14 14 13 13 13 12 12 12 12 11 11 11 12 11 12 12 12 12 12 11 11
16 17 13 12 13 15 15 14 18 22 21 19 19 20 15 15 17 18 15 15 15 14 14 13 13 13 13 13 12 12 12 12 11 12 12 12 12 12 12 12 12 12 12 11
16 16 11 12 12 13 15 17 14 20 22 20 19 17 15 16 18 18 17 15 15 14 14 14 14 14 14 13 13 13 12 12 12 12 12 12 13 12 12 13 12 12 12 12
13 16 13 13 12 13 14 13 18 16 22 22 18 19 16 19 18 18 18 16 15 15 15 15 15 15 15 15 15 15 14 14 14 13 13 13 13 13 13 14 14 13 13 13
12 14 15 13 13 14 15 15 14 14 16 20 20 17 14 15 16 17 16 15 15 15 15 15 15 15 17 17 18 17 16 16 16 15 14 14 14 14 14 14 14 14 14 14
12 13 17 16 15 15 12 13 14 17 19 19 19 16 18 19 17 15 16 15 15 14 15 15 15 17 17 18 18 18 17 18 17 17 16 16 15 15 15 15 15 15 15 14
11 15 19 18 16 15 15 15 14 16 16 19 18 16 19 20 20 18 16 16 16 15 16 17 18 18 18 19 18 18 17 18 18 18 18 17 16 16 16 15 15 15 15 14
9 13 15 17 16 15 17 15 15 14 17 18 16 16 15 17 18 19 17 15 15 15 16 17 18 18 19 19 19 18 18 18 18 19 19 18 17 17 16 15 16 16 15 15
11 15 16 18 18 17 16 16 16 16 15 17 16 18 14 15 17 17 16 16 17 18 18 18 17 17 18 19 19 19 18 18 19 19 19 19 18 18 18 18 17 17 16 15
11 15 16 18 18 17 17 16 15 15 14 16 21 19 15 19 20 18 16 17 17 17 17 17 18 18 19 20 19 19 19 18 19 19 20 19 19 19 19 18 18 17 17 17
12 15 15 18 18 17 18 17 16 15 14 15 17 14 16 17 18 15 16 17 16 16 17 17 18 19 19 20 18 19 19 17 18 18 18 17 17 18 17 17 17 18 17 16
13 14 14 19 18 20 18 21 19 15 16 13 16 16 14 14 17 18 17 16 16 17 18 18 19 19 19 19 19 18 17 17 17 18 18 18 18 18 17 17 17 16 16 16
12 14 18 18 18 17 18 19 18 17 15 14 15 14 17 20 17 17 18 18 16 18 18 19 20 20 19 20 19 18 18 18 18 19 19 18 18 19 18 18 17 16 16 16
13 14 15 18 19 20 17 17 18 18 18 18 20 16 19 18 15 13 18 19 20 20 20 20 20 20 19 19 18 18 19 19 19 19 19 19 19 19 19 18 18 17 16 16
15 16 17 18 18 17 16 17 17 18 17 18 21 20 18 16 16 17 17 18 18 19 20 19 20 19 20 19 19 19 19 20 20 19 19 19 19 19 18 18 18 18 18 17
16 17 17 18 19 19 16 16 16 15 17 18 20 20 18 19 19 17 19 19 19 20 19 18 18 19 19 19 19 20 20 20 20 20 20 20 20 19 18 19 18 18 19 19
16 15 16 16 15 15 15 14 15 17 15 16 16 19 18 19 19 18 18 18 18 18 18 18 18 19 19 20 20 20 21 21 21 22 22 21 20 19 19 19 18 18 18 17
15 14 15 15 14 14 14 14 15 16 14 14 15 16 16 16 17 17 17 17 18 18 19 19 19 20 21 21 21 21 21 22 24 23 21 20 20 20 19 18 18 17 17 17
14 14 15 15 13 13 13 13 12 14 15 14 15 15 15 15 16 17 17 18 18 18 19 19 20 20 21 21 21 22 22 23 23 22 21 20 19 19 19 19 18 18 17 16
13 14 15 15 13 13 12 12 12 13 14 14 15 16 16 15 16 16 17 17 18 19 20 20 21 21 21 22 22 23 24 25 24 21 20 20 20 19 19 19 18 18 17 16